Location: Windsor
(43.2292°N, 89.3015°W)
Time: 10:38:24
(UTC+00:00)

Tiros 1 - Pass Details

Date: 03 June 2022
Orbit: 629 x 663 km, 48.4° (Epoch: 04 July)

Event Time Altitude Azimuth Distance (km) Brightness Sun altitude
Rises 09:05:27 0° 294° (WNW) 2,924 10.3 -11.2°
Reaches altitude 10° 09:07:46 10° 292° (WNW) 2,018 9.5 -10.9°
Maximum altitude 09:12:22 65° 211° (SSW) 700 7.1 -10.4°
Drops below altitude 10° 09:17:00 10° 130° (SE) 2,029 9.8 -9.7°
Sets 09:19:20 0° 127° (SE) 2,942 10.7 -9.4°
